Weather History for Malaga, Spain

Change the Weather History Date:

Monday, September 24, 2012

  Actual Average Record
Temperature  
Mean Temperature 76 °F -  
Max Temperature 83 °F 73 °F 91 °F (2004)
Min Temperature 68 °F 58 °F 57 °F (2000)
Cooling Degree Days 10    
Growing Degree Days 26 (Base 50)    
Moisture  
Dew Point 56 °F    
Average Humidity 53    
Maximum Humidity 78    
Minimum Humidity 28    
Precipitation  
Precipitation 0.00 in 0.06 in - ()
Sea Level Pressure  
Sea Level Pressure 30.02 in    
Wind  
Wind Speed 10 mph ()    
Max Wind Speed 16 mph    
Max Gust Speed 24 mph    
Visibility 9.9 miles    
Events      
Averages and records for this station are not official NWS values.
T = Trace of Precipitation, MM = Missing Value Source: Averaged Metar Reports

Daily Weather History Graph

Daily Weather History Graph

Search for Another Location

Airport:

Trip Planner

Search our weather history database for the weather conditions in past years. The results will help you decide how hot, cold, wet, or windy it might be!

Date:

Astronomy

Sep. 24, 2012 Rise Set
Actual Time 8:07 AM CEST 8:11 PM CEST
Civil Twilight 7:41 AM CEST 8:37 PM CEST
Nautical Twilight 7:11 AM CEST 9:07 PM CEST
Astronomical Twilight 6:41 AM CEST 9:37 PM CEST
Moon 4:40 PM CEST (9/24) 2:16 AM CEST (9/24)
Length of Visible Light 12h 55m
Length of Day
12h 03m
Waxing Gibbous, 68% of the Moon is Illuminated
Sep 24
Waxing Gibbous
Sep 30
Full
Oct 8
Last Quarter
Oct 15
New
Oct 22
First Quarter

Hourly Weather History & Observations

Time (CEST) Temp. Heat Index Dew Point Humidity Pressure Visibility Wind Dir Wind Speed Gust Speed Precip Events Conditions
12:00 AM 78.8 °F - 60.8 °F 54% 29.98 in - NW 12.7 mph 24.2 mph N/A   Clear
12:30 AM 78.8 °F - 59.0 °F 51% 30.01 in - NW 12.7 mph - N/A   Clear
1:00 AM 77.0 °F - 60.8 °F 57% 30.01 in - WNW 16.1 mph - N/A   Clear
1:30 AM 77.0 °F - 60.8 °F 57% 30.01 in - WNW 15.0 mph - N/A   Clear
2:00 AM 78 °F - 61 °F 45% 30.02 in 12 mi WNW 12.7 mph - -   Scattered Clouds
2:00 AM 77.0 °F - 59.0 °F 54% 30.01 in - WNW 12.7 mph - N/A   Clear
2:30 AM 75.2 °F - 60.8 °F 61% 30.01 in - WNW 10.4 mph - N/A   Clear
3:00 AM 75.2 °F - 60.8 °F 61% 30.01 in - WNW 11.5 mph - N/A   Clear
3:30 AM 75.2 °F - 59.0 °F 57% 30.01 in - WNW 11.5 mph - N/A   Clear
4:00 AM 73.4 °F - 59.0 °F 61% 30.01 in - WNW 10.4 mph - N/A   Clear
4:30 AM 73.4 °F - 59.0 °F 61% 30.01 in - NW 10.4 mph - N/A   Clear
5:00 AM 71.6 °F - 57.2 °F 60% 30.01 in - WNW 15.0 mph - N/A   Clear
5:30 AM 71.6 °F - 57.2 °F 60% 30.04 in - WNW 10.4 mph - N/A   Clear
6:00 AM 69.8 °F - 57.2 °F 64% 30.04 in - WNW 9.2 mph - N/A   Clear
6:30 AM 69.8 °F - 55.4 °F 60% 30.04 in - WNW 10.4 mph - N/A   Clear
7:00 AM 69.8 °F - 57.2 °F 64% 30.06 in - WNW 12.7 mph - N/A   Clear
7:30 AM 69.8 °F - 55.4 °F 60% 30.06 in - West 11.5 mph - N/A   Clear
8:00 AM 71 °F - 56 °F 50% 30.09 in 19 mi West 12.7 mph - -   Scattered Clouds
8:00 AM 69.8 °F - 55.4 °F 60% 30.06 in - West 12.7 mph - N/A   Clear
8:30 AM 68.0 °F - 55.4 °F 64% 30.09 in 6.2 mi WNW 12.7 mph - N/A   Partly Cloudy
9:00 AM 68.0 °F - 55.4 °F 64% 30.09 in 6.2 mi West 12.7 mph - N/A   Partly Cloudy
9:30 AM 69.8 °F - 55.4 °F 60% 30.09 in 6.2 mi WNW 13.8 mph - N/A   Partly Cloudy
10:00 AM 69.8 °F - 53.6 °F 56% 30.09 in 6.2 mi WNW 12.7 mph - N/A   Partly Cloudy
10:30 AM 71.6 °F - 51.8 °F 50% 30.09 in 6.2 mi WNW 13.8 mph - N/A   Partly Cloudy
11:00 AM 73.4 °F - 48.2 °F 41% 30.09 in 6.2 mi WNW 13.8 mph - N/A   Partly Cloudy
11:30 AM 75.2 °F - 48.2 °F 38% 30.09 in - WNW 12.7 mph - N/A   Clear
12:00 PM 75.2 °F - 46.4 °F 36% 30.09 in 6.2 mi WNW 10.4 mph - N/A   Partly Cloudy
12:30 PM 77.0 °F - 48.2 °F 36% 30.09 in 6.2 mi WNW 9.2 mph - N/A   Partly Cloudy
1:00 PM 78.8 °F - 46.4 °F 32% 30.09 in - NW 9.2 mph - N/A   Clear
1:30 PM 80.6 °F - 46.4 °F 30% 30.06 in - NW 9.2 mph - N/A   Clear
2:00 PM 81 °F - 54 °F 29% 30.07 in 19 mi NW 6.9 mph - -   Scattered Clouds
2:00 PM 80.6 °F - 44.6 °F 28% 30.06 in - NW 6.9 mph - N/A   Clear
2:30 PM 80.6 °F - 44.6 °F 28% 30.04 in - West 5.8 mph - N/A   Clear
3:00 PM 78.8 °F - 51.8 °F 39% 30.04 in - South 9.2 mph - N/A   Clear
3:30 PM 80.6 °F - 50.0 °F 34% 30.01 in - SSE 10.4 mph - N/A   Clear
4:00 PM 82.4 °F - 46.4 °F 28% 30.01 in - South 9.2 mph - N/A   Clear
4:30 PM 78.8 °F - 48.2 °F 34% 29.98 in - South 8.1 mph - N/A   Clear
5:00 PM 82.4 °F - 51.8 °F 35% 29.98 in - SSE 10.4 mph - N/A   Clear
5:30 PM 80.6 °F 80.5 °F 55.4 °F 42% 29.98 in - South 11.5 mph - N/A   Clear
6:00 PM 78.8 °F - 60.8 °F 54% 29.95 in - SSE 9.2 mph - N/A   Clear
6:30 PM 78.8 °F - 60.8 °F 54% 29.95 in - SSE 8.1 mph - N/A   Clear
7:00 PM 77.0 °F - 60.8 °F 57% 29.95 in - SSE 8.1 mph - N/A   Clear
7:30 PM 77.0 °F - 60.8 °F 57% 29.95 in - SSE 5.8 mph - N/A   Clear
8:00 PM 77 °F - 64 °F 54% 29.96 in 19 mi 2.3 mph - -   Clear
8:00 PM 75.2 °F - 60.8 °F 61% 29.95 in - Variable 2.3 mph - N/A   Clear
8:30 PM 75.2 °F - 62.6 °F 65% 29.95 in - ENE 5.8 mph - N/A   Clear
9:00 PM 73.4 °F - 62.6 °F 69% 29.95 in - Variable 2.3 mph - N/A   Clear
9:30 PM 71.6 °F - 64.4 °F 78% 29.95 in - ENE 6.9 mph - N/A   Clear
10:00 PM 71.6 °F - 64.4 °F 78% 29.95 in - ENE 6.9 mph - N/A   Clear
10:30 PM 71.6 °F - 64.4 °F 78% 29.95 in - ENE 3.5 mph - N/A   Clear
11:00 PM 71.6 °F - 64.4 °F 78% 29.98 in - North 2.3 mph - N/A   Clear
11:30 PM 69.8 °F - 62.6 °F 78% 29.98 in - Variable 2.3 mph - N/A   Clear